Home   Weather   Augsburg   Past weeks

Flag for Germany Past Weather in Augsburg, Bavaria, Germany — Yesterday and Last 2 Weeks

Now
32 °F

Light snow. Low clouds.


Feels Like: 32 °F
Forecast: 38 / 45 °F
Wind: 2 mph from Northwest

Location: Augsburg

Current Time: Apr 26, 2017 at 6:12:53 am

Latest Report: Apr 26, 2017 at 4:00 am


Visibility: 1 mi

Pressure: 29.84 "Hg

Humidity: 100%

Dew Point: 32 °F

Location of AugsburgLocation

Past Weather in Augsburg — Graph

°F

Augsburg Temperature Yesterday

Maximum temperature yesterday: 54 °F (at 1:00 pm)
Minimum temperature yesterday: 42 °F (at 10:00 pm)
Average temperature yesterday: 47 °F

High & Low Weather Summary for the Past Weeks

 TemperatureHumidityPressure
High64 °F (Apr 12, 6:00 pm)100% (Apr 18, 4:00 am)30.60 "Hg (Apr 18, 4:00 am)
Low26 °F (Apr 24, 6:00 am)38% (Apr 12, 3:00 pm)29.73 "Hg (Apr 25, 4:00 pm)
Average43 °F75%30.16 "Hg
* Reported Apr 11 4:00 am — Apr 26 4:00 am, Augsburg, Weather by CustomWeather, © 2017

Note: Actual official high and low records may vary slightly from our data, if they occured in-between our weather recording intervals... More about our weather records

Advertising

Augsburg Weather History for the Previous 24 Hours

Scroll right to see more
 ConditionsComfort  
Time TempWeatherWind HumidityBarometerVisibility
4:00 am
Wed, Apr 26
32 °FLight snow. Low clouds.2 mph100%29.84 "Hg1 mi
3:00 am33 °FLight rain. Low clouds.3 mph99%29.83 "Hg2 mi
1:00 am38 °FLight rain. Light fog.5 mph97%29.82 "Hg5 mi
12:00 am40 °FRain. Fog.3 mph99%29.82 "Hg2 mi
10:00 pm
Tue, Apr 25
42 °FLight rain. Overcast.3 mph98%29.83 "Hg3 mi
9:00 pm43 °FLight rain. Overcast.3 mph97%29.82 "Hg3 mi
7:00 pm47 °FLight rain. Overcast.No wind95%29.77 "Hg3 mi
6:00 pm49 °FLight rain. Overcast.3 mph89%29.75 "Hg4 mi
4:00 pm52 °FLight rain. Partly sunny.5 mph82%29.73 "Hg13 mi
3:00 pm50 °FOvercast.7 mph88%29.75 "Hg4 mi
1:00 pm54 °FOvercast.2 mph66%29.76 "Hg19 mi
12:00 pm52 °FOvercast.2 mph72%29.78 "Hg19 mi
10:00 am50 °FOvercast.2 mph95%29.77 "Hg9 mi
9:00 am50 °FLight rain. Overcast.2 mph94%29.77 "Hg7 mi
7:00 am50 °FOvercast.3 mph81%29.74 "Hg7 mi
6:00 am47 °FOvercast.2 mph84%29.75 "Hg15 mi
Weather by CustomWeather, © 2017

See weather overviewHow to use our weather pages